Zurück zum Katalog

STARLINK-37129

AktivKommunikationVLEO
NORAD 68274·PAYLOAD·🇺🇸 United States

Gestartet Mar 19, 2026 von Vandenberg Space Force Base

Loading…

Nächste Überflüge (nächste 24 Stunden)

TLE

AktuellSource: CelesTrak SupGP

Epoche: Sep 15, 2026, 03:06 UTC

1 68274C 26055N   26258.12965278  .00007168  00000+0  21181-3 0  2583
2 68274  53.1575 155.1183 0001155  75.5819 316.0875 15.34380069    16

Verfolge STARLINK-37129 in Echtzeit mit AllMySat

Download on the App Store